Flag for Norway Weather past 2 weeks in Longyearbyen, Svalbard, Norway

Now
25 °F

Passing clouds.


Feels Like: 25 °F
Forecast: 27 / 33 °F
Wind: 2 mph from North

Location: Svalbard Lufthavn

Current Time: Mar 5, 2015 at 9:53:26 PM

Latest Report: Mar 5, 2015 at 8:50 PM


Visibility: N/A

Pressure: 29.47 "Hg

Humidity: 74%

Dew point: 18 °F

Location of LongyearbyenLocation

Historic Weather in Longyearbyen — Graph

°F

Longyearbyen temperature yesterday

Maximum temperature yesterday: 28 °F (at 9:50 PM)
Minimum temperature yesterday: 19 °F (at 12:50 PM)
Average temperature yesterday: 24 °F

Past Weeks' High & Low Weather Summary

 TemperatureHumidityPressure
High36 °F (Mar 3, 9:50 AM)93% (Feb 25, 10:50 PM)29.92 "Hg (Feb 25, 10:50 PM)
Low-13 °F (Feb 22, 3:50 AM)37% (Feb 24, 9:50 PM)29.15 "Hg (Feb 22, 4:50 AM)
Average11 °F69%29.43 "Hg
* Reported Feb 18 7:50 PM — Mar 5 7:50 PM, Longyearbyen, Weather by CustomWeather, © 2015

Note: Actual official high and low records may vary slightly from our data, if they occured in-between our weather recording intervals... More about our weather records

Advertising

Longyearbyen weather history for previous 24 hours

 ConditionsComfort  
Time TempWeatherWind HumidityBarometerVisibility
7:50 PM
Thu, Mar 5
25 °FLight snow. Passing clouds.3 mph69%29.47 "HgN/A
6:50 PM25 °FPassing clouds.9 mph69%29.50 "HgN/A
5:50 PM27 °FPassing clouds.12 mph69%29.50 "HgN/A
4:50 PM27 °FPartly cloudy.12 mph74%29.50 "HgN/A
3:50 PM27 °FLight snow. Partly sunny.16 mph74%29.50 "HgN/A
2:50 PM27 °FLight snow. Partly sunny.12 mph80%29.50 "Hg5 mi
1:50 PM27 °FSnow flurries. Broken clouds.21 mph86%29.50 "Hg3 mi
1:20 PM28 °FSnow showers. Ice fog.14 mph80%29.50 "Hg1 mi
12:50 PM27 °FSnow flurries. Broken clouds.9 mph80%29.47 "Hg4 mi
11:50 AM28 °FBroken clouds.13 mph69%29.50 "HgN/A
10:50 AM28 °FSnow flurries. Partly sunny.14 mph74%29.47 "HgN/A
10:20 AM28 °FSnow flurries. Broken clouds.17 mph80%29.47 "Hg2 mi
9:50 AM30 °FSnow flurries. Broken clouds.12 mph69%29.47 "HgN/A
8:50 AM28 °FBroken clouds.8 mph74%29.47 "HgN/A
7:50 AM30 °FPartly cloudy.7 mph69%29.47 "HgN/A
7:20 AM27 °FSnow flurries. Partly cloudy.8 mph80%29.47 "HgN/A
6:50 AM27 °FScattered showers. Partly cloudy.6 mph93%29.47 "HgN/A
5:57 AM28 °FLight snow. Ice fog.2 mph86%29.47 "Hg2 mi
4:50 AM28 °FScattered showers. Partly cloudy.1 mph74%29.47 "HgN/A
4:08 AM28 °FPassing clouds.7 mph74%29.47 "HgN/A
1:50 AM27 °FPassing clouds.12 mph86%29.53 "HgN/A
12:50 AM28 °FPassing clouds.5 mph86%29.53 "HgN/A
11:50 PM
Wed, Mar 4
27 °FPassing clouds.6 mph86%29.56 "HgN/A
10:50 PM27 °FPassing clouds.3 mph86%29.56 "HgN/A
9:50 PM28 °FPassing clouds.9 mph80%29.56 "HgN/A
Weather by CustomWeather, © 2015

See weather overviewHow to use our weather pages